Location: Gälforsberget
(66.6500°N, 22.4167°E)
Time: 19:35:32
(UTC+00:00)

Cosmos 2369 Rocket - Pass Details

Date: 11 April 2026
Orbit: 829 x 850 km, 71.0° (Epoch: 19 May)

Event Time Altitude Azimuth Distance (km) Brightness Sun altitude
Rises 21:09:34 0° 314° (NW) 3,392 6.6 -13.3°
Reaches altitude 10° 21:12:08 10° 307° (NW) 2,453 5.5 -13.4°
Maximum altitude 21:17:18 39° 241° (WSW) 1,231 3.0 -13.6°
Enters shadow 21:20:56 18° 182° (S) 1,933 3.5 -13.7°
